Вернуться в каталог

SL-18 R/B

АктивенLEO
NORAD 22562·ROCKET BODY·🇷🇺 Russia

Запущен Mar 25, 1993 с Plesetsk Cosmodrome

Loading…

Ближайшие Пролёты (ближайшие 24 часа)

TLE

СвежийSource: Space-Track

Эпоха: Sep 14, 2026, 07:09 UTC

1 22562U 93014B   26257.29830346  .00000102  00000-0  38619-4 0  9995
2 22562  75.7631  22.2550 0161995  30.9729 330.0860 14.30645405744574

Отслеживайте SL-18 R/B в реальном времени с AllMySat

Download on the App Store